Weather History for Dar Es Salaam, Tanzania

Change the Weather History Date:

Wednesday, February 13, 2013

  Actual Average Record
Temperature  
Mean Temperature 86 °F -  
Max Temperature 93 °F 85 °F 93 °F (2009)
Min Temperature 78 °F 76 °F 71 °F (2008)
Cooling Degree Days 20    
Growing Degree Days 36 (Base 50)    
Moisture  
Dew Point 76 °F    
Average Humidity 75    
Maximum Humidity 94    
Minimum Humidity 52    
Precipitation  
Precipitation 0.00 in 0.11 in - ()
Sea Level Pressure  
Sea Level Pressure 29.78 in    
Wind  
Wind Speed 10 mph ()    
Max Wind Speed 20 mph    
Max Gust Speed -    
Visibility 9.4 miles    
Events      
Averages and records for this station are not official NWS values.
T = Trace of Precipitation, MM = Missing Value Source: Averaged Metar Reports

Daily Weather History Graph

Daily Weather History Graph

Search for Another Location

Airport:

Trip Planner

Search our weather history database for the weather conditions in past years. The results will help you decide how hot, cold, wet, or windy it might be!

Date:

Astronomy

Feb. 13, 2013 Rise Set
Actual Time 6:27 AM EAT 6:47 PM EAT
Civil Twilight 6:05 AM EAT 7:08 PM EAT
Nautical Twilight 5:40 AM EAT 7:33 PM EAT
Astronomical Twilight 5:15 AM EAT 7:58 PM EAT
Moon 8:53 AM EAT (2/13) 9:10 PM EAT (2/13)
Length of Visible Light 13h 02m
Length of Day
12h 19m
Waxing Crescent, 11% of the Moon is Illuminated
Feb 13
Waxing Crescent
Feb 17
First Quarter
Feb 25
Full
Mar 5
Last Quarter
Mar 11
New

Hourly Weather History & Observations

Time (EAT) Temp. Heat Index Dew Point Humidity Pressure Visibility Wind Dir Wind Speed Gust Speed Precip Events Conditions
12:00 AM 79 °F - 75 °F 84% 29.81 in 19 mi North 11.5 mph - -   Partly Cloudy
12:00 AM 80.6 °F 86.2 °F 75.2 °F 84% 29.80 in 6.2 mi NNE 11.5 mph - N/A   Scattered Clouds
3:00 AM 80 °F - 75 °F 81% 29.79 in 19 mi North 9.2 mph - -   Scattered Clouds
4:00 AM 78.8 °F - 75.2 °F 89% 29.77 in 6.2 mi North 4.6 mph - N/A   Partly Cloudy
5:00 AM 78.8 °F - 75.2 °F 89% 29.77 in 6.2 mi North 5.8 mph - N/A   Scattered Clouds
6:00 AM 78.8 °F - 75.2 °F 89% 29.80 in 6.2 mi North 5.8 mph - N/A   Scattered Clouds
8:00 AM 78.8 °F - 77.0 °F 94% 29.83 in 6.2 mi North 3.5 mph - N/A   Scattered Clouds
9:00 AM 82.4 °F 89.5 °F 75.2 °F 79% 29.86 in 6.2 mi North 10.4 mph - N/A   Scattered Clouds
10:00 AM 87.8 °F 97.6 °F 75.2 °F 66% 29.86 in 6.2 mi North 15.0 mph - N/A   Mostly Cloudy
11:00 AM 89.6 °F 98.2 °F 73.4 °F 59% 29.83 in 6.2 mi North 15.0 mph - N/A   Scattered Clouds
2:00 PM 91.4 °F 102.5 °F 75.2 °F 59% 29.77 in 6.2 mi NNE 17.3 mph - N/A   Scattered Clouds
3:00 PM 90 °F - 76 °F 56% 29.75 in 19 mi NNE 19.6 mph - -   Partly Cloudy
3:00 PM 89.6 °F 102.2 °F 77.0 °F 66% 29.74 in 6.2 mi NNE 19.6 mph - N/A   Scattered Clouds
4:00 PM 89.6 °F 102.2 °F 77.0 °F 66% 29.71 in 6.2 mi NNE 17.3 mph - N/A   Partly Cloudy
5:00 PM 93.2 °F 102.4 °F 73.4 °F 52% 29.80 in 6.2 mi NNW 13.8 mph - N/A   Scattered Clouds
6:00 PM 86 °F - 76 °F 64% 29.71 in 19 mi NE 15.0 mph - -   Scattered Clouds
8:00 PM 82.4 °F 89.5 °F 75.2 °F 79% 29.74 in 6.2 mi NE 12.7 mph - N/A   Partly Cloudy
9:00 PM 82 °F - 76 °F 78%  in 19 mi NNE 9.2 mph - -   Scattered Clouds
9:00 PM 82.4 °F 90.9 °F 77.0 °F 84% 29.77 in 6.2 mi NNE 9.2 mph - N/A   Partly Cloudy
11:00 PM 80.6 °F 87.1 °F 77.0 °F 89% 29.80 in 6.2 mi NNE 9.2 mph - N/A   Partly Cloudy